Date,TemperatureHighF,TemperatureAvgF,TemperatureLowF,DewpointHighF,DewpointAvgF,DewpointLowF,HumidityHigh,HumidityAvg,HumidityLow,PressureMaxIn,PressureMinIn,WindSpeedMaxMPH,WindSpeedAvgMPH,GustSpeedMaxMPH,PrecipitationSumIn
2013-4-1,80.0,75.3,72.0,-99.9,-99.9,-99.9,0,0,100,30.06,29.97,0,-999,0,0.00
2013-4-2,79.0,74.3,70.0,-99.9,-99.9,-99.9,0,0,100,30.09,30.00,0,-999,0,0.00
2013-4-3,83.0,77.1,71.0,-99.9,-99.9,-99.9,0,0,100,30.06,29.94,0,-999,0,0.00
2013-4-4,85.0,77.5,75.0,-99.9,-99.9,-99.9,0,0,100,30.02,29.90,0,-999,0,0.00
2013-4-5,77.0,71.1,66.0,-99.9,-99.9,-99.9,0,0,100,29.99,29.83,0,-999,0,0.00
2013-4-6,71.0,68.3,66.0,-99.9,-99.9,-99.9,0,0,100,30.08,29.96,0,-999,0,0.00
2013-4-7,83.0,75.3,69.0,-99.9,-99.9,-99.9,0,0,100,30.08,29.98,0,-999,0,0.00
2013-4-8,83.0,77.5,74.0,-99.9,-99.9,-99.9,0,0,100,30.09,29.99,0,-999,0,0.00
2013-4-9,84.0,77.8,74.0,-99.9,-99.9,-99.9,0,0,100,30.10,30.01,0,-999,0,0.00
2013-4-10,85.0,79.0,75.0,-99.9,-99.9,-99.9,0,0,100,30.07,29.93,0,-999,0,0.00
2013-4-11,85.0,80.1,77.0,-99.9,-99.9,-99.9,0,0,100,29.97,29.85,0,-999,0,0.00
2013-4-12,86.0,80.4,77.0,-99.9,-99.9,-99.9,0,0,100,29.96,29.86,0,-999,0,0.00
2013-4-13,84.0,80.0,78.0,-99.9,-99.9,-99.9,0,0,100,29.97,29.87,0,-999,0,0.00
2013-4-14,86.0,81.4,78.0,-99.9,-99.9,-99.9,0,0,100,29.95,29.86,0,-999,0,0.00
2013-4-15,87.0,81.7,78.0,-99.9,-99.9,-99.9,0,0,100,30.03,29.91,0,-999,0,0.00
2013-4-16,88.0,82.9,79.0,-99.9,-99.9,-99.9,0,0,100,30.07,29.99,0,-999,0,0.00
2013-4-17,87.0,82.2,79.0,-99.9,-99.9,-99.9,0,0,100,30.07,29.98,0,-999,0,0.00
2013-4-18,87.0,81.8,78.0,-99.9,-99.9,-99.9,0,0,100,30.02,29.92,0,-999,0,0.00
2013-4-19,87.0,82.0,79.0,-99.9,-99.9,-99.9,0,0,100,30.02,29.94,0,-999,0,0.00
2013-4-20,85.0,81.3,78.0,-99.9,-99.9,-99.9,0,0,100,30.07,29.95,0,-999,0,0.00
2013-4-21,88.0,80.4,74.0,-99.9,-99.9,-99.9,0,0,100,30.07,29.97,0,-999,0,0.00
2013-4-22,86.0,78.8,74.0,-99.9,-99.9,-99.9,0,0,100,30.05,29.92,0,-999,0,0.00
2013-4-23,85.0,79.4,75.0,-99.9,-99.9,-99.9,0,0,100,30.04,29.94,0,-999,0,0.00
2013-4-24,86.0,79.8,75.0,-99.9,-99.9,-99.9,0,0,100,30.10,30.00,0,-999,0,0.00
2013-4-25,83.0,78.9,75.0,-99.9,-99.9,-99.9,0,0,100,30.17,30.06,0,-999,0,0.00
2013-4-26,84.0,77.6,73.0,-99.9,-99.9,-99.9,0,0,100,30.19,30.09,0,-999,0,0.00
2013-4-27,85.0,78.2,73.0,-99.9,-99.9,-99.9,0,0,100,30.17,30.04,0,-999,0,0.00
2013-4-28,85.0,79.4,75.0,-99.9,-99.9,-99.9,0,0,100,30.07,29.95,0,-999,0,0.00
2013-4-29,84.0,78.8,74.0,-99.9,-99.9,-99.9,0,0,100,29.99,29.90,0,-999,0,0.00
2013-4-30,85.0,80.9,76.0,-99.9,-99.9,-99.9,0,0,100,29.97,29.89,0,-999,0,0.00